Overview Statistics Trail Chart Weather Telemetry Raw packets
 

This is the latest recevied weather packets stored in our database for station/object OE6JUE. If no packets are shown the sender has not sent any weather packets the latest 10 day(s).

<< 69 70 71 72 73 74 75 >>
Time Temp. Humidity Pressure Rain* Wind** Luminosity Snow
1788195221 19.44° C 86% 1016.4 hPa 1.02 mm - - -
1788194921 19.44° C 86% 1016.4 hPa 1.02 mm - - -
1788194620 19.44° C 85% 1016.5 hPa 1.02 mm - - -
1788194321 20° C 83% 1016.6 hPa 1.02 mm - - -
1788194021 20° C 83% 1016.6 hPa 1.02 mm - - -
1788193721 20° C 83% 1016.7 hPa 1.02 mm - - -
1788193421 20° C 84% 1016.9 hPa 1.02 mm - - -
1788193121 20.56° C 81% 1017 hPa 1.02 mm - - -
1788192820 21.11° C 76% 1017.2 hPa 1.02 mm - - -
1788192521 22.22° C 71% 1017 hPa 0.51 mm - - -
1788192221 23.33° C 59% 1016.7 hPa 0.25 mm - - -
1788191921 23.33° C 59% 1016.7 hPa 0.25 mm - - -
1788191621 24.44° C 51% 1016.7 hPa 0 mm - - -
1788191321 26.11° C 47% 1016.3 hPa 0 mm - - -
1788191021 28.33° C 33% 1016.2 hPa 0 mm - - -
1788190720 29.44° C 30% 1016.1 hPa 0 mm - - -
1788190421 29.44° C 28% 1016.1 hPa 0 mm - - -
1788190120 29.44° C 27% 1016.1 hPa 0 mm - - -
1788189821 30° C 30% 1016.1 hPa 0 mm - - -
1788189520 30° C 30% 1016 hPa 0 mm - - -
1788189221 30° C 29% 1016.1 hPa 0 mm - - -
1788188921 30° C 28% 1015.9 hPa 0 mm - - -
1788188621 30° C 28% 1015.9 hPa 0 mm - - -
1788188321 30.56° C 28% 1015.9 hPa 0 mm - - -
1788188020 31.11° C 26% 1015.7 hPa 0 mm - - -

* Rain latest hour (hover to see other rain measurements)
** Current wind speed in m/s (hover to see current wind gust speed)